Wilkerson Pass, CO

9:02 PM MDT on April 26, 2017 (GMT -0600)
Wilkerson Pass

Weather History for K4BM - November, 2013

Change the Weather History Date:

Thursday, November 21, 2013

  Actual Average (KAFF) Record (KAFF)
Temperature  
Mean Temperature 24 °F -  
Max Temperature 28 °F 45 °F 69 °F (2012)
Min Temperature 15 °F 23 °F 5 °F (2015)
Degree Days  
Heating Degree Days 42    
Moisture  
Dew Point 22 °F    
Average Humidity 93    
Maximum Humidity 100    
Minimum Humidity 86    
Precipitation  
Precipitation 0.00 in - - ()
Sea Level Pressure  
Sea Level Pressure 30.10 in    
Wind  
Wind Speed 6 mph (South)    
Max Wind Speed 10 mph    
Max Gust Speed 20 mph    
Visibility 2 miles    
Events Fog , Snow    
Averages and records for this station are not official NWS values.
T = Trace of Precipitation, MM = Missing Value Source: NWS Daily Summary

Daily Weather History Graph

Daily Weather History Graph

Search for Another Location

Airport or City:

Trip Planner

Search our weather history database for the weather conditions in past years. The results will help you decide how hot, cold, wet, or windy it might be!

Date:

Astronomy

Nov. 21, 2013 Rise Set
Actual Time 6:51 AM MST 4:43 PM MST
Civil Twilight 6:22 AM MST 5:12 PM MST
Nautical Twilight 5:50 AM MST 5:45 PM MST
Astronomical Twilight 5:18 AM MST 6:17 PM MST
Moon 8:22 PM MST (11/21) 10:00 AM MST (11/21)
Length of Visible Light 10h 49m
Length of Day
9h 51m
Waning Gibbous, 85% of the Moon is Illuminated
Nov 21
Waning Gibbous
Nov 25
Last Quarter
Dec 2
New
Dec 9
First Quarter
Dec 17
Full

Hourly Weather History & Observations

Time (MST) Temp. Windchill Dew Point Humidity Pressure Visibility Wind Dir Wind Speed Gust Speed Precip Events Conditions
12:01 AM 23.0 °F 12.4 °F 21.2 °F 93% 30.00 in 2.5 mi ENE 10.4 mph - N/A Snow Light Snow
12:20 AM 23.0 °F 13.1 °F 21.2 °F 93% 30.00 in 0.8 mi ENE 9.2 mph - N/A Snow Snow
12:41 AM 23.0 °F 13.9 °F 23.0 °F 100% 30.00 in 0.2 mi East 8.1 mph - N/A Snow Heavy Snow
1:00 AM 23.0 °F 14.7 °F 21.2 °F 93% 30.00 in 0.5 mi East 6.9 mph - N/A Snow Snow
1:21 AM 23.0 °F 14.7 °F 21.2 °F 93% 30.00 in 0.2 mi East 6.9 mph - N/A Snow Heavy Snow
1:41 AM 23.0 °F 14.7 °F 21.2 °F 93% 30.00 in 0.5 mi East 6.9 mph - N/A Snow Heavy Snow
2:01 AM 23.0 °F 15.8 °F 21.2 °F 93% 30.00 in 0.8 mi ESE 5.8 mph - N/A Snow Snow
2:20 AM 23.0 °F 14.7 °F 21.2 °F 93% 30.00 in 0.5 mi SSE 6.9 mph - N/A Snow Snow
2:41 AM 23.0 °F 15.8 °F 21.2 °F 93% 30.00 in 1.5 mi SSE 5.8 mph - N/A Snow Light Snow
3:01 AM 23.0 °F 15.8 °F 21.2 °F 93% 30.00 in 2.0 mi South 5.8 mph - N/A Snow Light Snow
3:21 AM 23.0 °F 13.9 °F 21.2 °F 93% 30.00 in 4.0 mi South 8.1 mph - N/A Snow Light Snow
3:41 AM 23.0 °F 13.1 °F 21.2 °F 93% 30.00 in 3.0 mi South 9.2 mph - N/A   Overcast
4:01 AM 23.0 °F 14.7 °F 21.2 °F 93% 30.00 in 1.2 mi South 6.9 mph - N/A Snow Light Snow
4:21 AM 23.0 °F 13.1 °F 21.2 °F 93% 30.00 in 1.0 mi South 9.2 mph - N/A   Overcast
4:41 AM 23.0 °F 13.1 °F 21.2 °F 93% 30.00 in 2.0 mi South 9.2 mph - N/A   Overcast
5:01 AM 23.0 °F 15.8 °F 21.2 °F 93% 30.00 in 1.8 mi SSW 5.8 mph 19.6 mph N/A   Overcast
5:20 AM 23.0 °F 13.1 °F 21.2 °F 93% 30.00 in 1.0 mi SSW 9.2 mph 18.4 mph N/A Snow Light Snow
5:41 AM 23.0 °F 15.8 °F 21.2 °F 93% 30.02 in 0.8 mi South 5.8 mph - N/A Snow Light Snow
6:00 AM 23.0 °F 17.0 °F 21.2 °F 93% 30.02 in 1.2 mi SW 4.6 mph - N/A Snow Light Snow
6:21 AM 23.0 °F 15.8 °F 21.2 °F 93% 30.03 in 0.5 mi SSW 5.8 mph - N/A Snow Heavy Snow
6:41 AM 23.0 °F 15.8 °F 21.2 °F 93% 30.03 in 1.2 mi SSW 5.8 mph - N/A   Overcast
7:00 AM 23.0 °F 15.8 °F 21.2 °F 93% 30.03 in 0.5 mi SSW 5.8 mph - N/A Snow Light Snow
7:21 AM 23.0 °F 15.8 °F 21.2 °F 93% 30.05 in 0.8 mi South 5.8 mph - N/A   Overcast
7:41 AM 23.0 °F 18.4 °F 21.2 °F 93% 30.05 in 0.5 mi South 3.5 mph - N/A Fog Light Freezing Fog
8:01 AM 21.2 °F 13.6 °F 19.4 °F 93% 30.06 in 0.5 mi SSW 5.8 mph - N/A Fog Light Freezing Fog
8:21 AM 21.2 °F 11.7 °F 19.4 °F 93% 30.06 in 1.5 mi South 8.1 mph - N/A   Overcast
8:41 AM 21.2 °F 16.4 °F 19.4 °F 93% 30.07 in 1.2 mi SSW 3.5 mph - N/A   Overcast
9:01 AM 23.0 °F 18.4 °F 21.2 °F 93% 30.07 in 2.5 mi SSW 3.5 mph - N/A Snow Light Snow
9:21 AM 23.0 °F 18.4 °F 21.2 °F 93% 30.08 in 4.0 mi SSW 3.5 mph - N/A   Overcast
9:41 AM 23.0 °F 17.0 °F 23.0 °F 100% 30.08 in 1.5 mi SSW 4.6 mph - N/A   Overcast
10:01 AM 24.8 °F 19.1 °F 23.0 °F 93% 30.09 in 2.5 mi SSW 4.6 mph - N/A   Overcast
10:20 AM 26.6 °F 22.6 °F 23.0 °F 86% 30.09 in 7.0 mi SSW 3.5 mph - N/A   Overcast
10:40 AM 26.6 °F 20.0 °F 23.0 °F 86% 30.08 in 0.5 mi SSW 5.8 mph - N/A Snow Snow
11:01 AM 26.6 °F 21.2 °F 23.0 °F 86% 30.08 in 0.8 mi SSW 4.6 mph - N/A Snow Light Snow
11:20 AM 26.6 °F 20.0 °F 23.0 °F 86% 30.08 in 1.0 mi SSW 5.8 mph - N/A   Overcast
11:41 AM 26.6 °F 21.2 °F 24.8 °F 93% 30.07 in 1.5 mi SSW 4.6 mph - N/A   Overcast
12:01 PM 26.6 °F 21.2 °F 26.6 °F 100% 30.07 in 1.8 mi SSW 4.6 mph - N/A   Overcast
12:21 PM 26.6 °F 19.1 °F 24.8 °F 93% 30.07 in 1.8 mi SSW 6.9 mph - N/A   Overcast
12:41 PM 28.4 °F 20.4 °F 26.6 °F 93% 30.07 in 2.5 mi SSW 8.1 mph - N/A   Overcast
1:01 PM 28.4 °F 21.2 °F 26.6 °F 93% 30.07 in 3.0 mi SSW 6.9 mph - N/A   Overcast
1:21 PM 28.4 °F 21.2 °F 26.6 °F 93% 30.08 in 1.8 mi SSW 6.9 mph - N/A   Overcast
1:41 PM 26.6 °F 19.1 °F 26.6 °F 100% 30.08 in 2.0 mi SSW 6.9 mph - N/A   Overcast
2:01 PM 28.4 °F 22.2 °F 26.6 °F 93% 30.08 in 3.0 mi SW 5.8 mph - N/A   Overcast
2:20 PM 26.6 °F 19.1 °F 24.8 °F 93% 30.09 in 2.0 mi SSW 6.9 mph - N/A   Overcast
2:41 PM 26.6 °F 20.0 °F 24.8 °F 93% 30.10 in 1.2 mi SSW 5.8 mph - N/A   Overcast
3:01 PM 26.6 °F 20.0 °F 23.0 °F 86% 30.12 in 2.0 mi SSW 5.8 mph - N/A   Overcast
3:21 PM 26.6 °F 20.0 °F 23.0 °F 86% 30.12 in 1.0 mi SSW 5.8 mph - N/A Snow Light Snow
3:41 PM 26.6 °F 20.0 °F 23.0 °F 86% 30.13 in 1.0 mi SSW 5.8 mph - N/A   Overcast
4:01 PM 24.8 °F 17.9 °F 23.0 °F 93% 30.14 in 1.2 mi SSW 5.8 mph - N/A   Overcast
4:20 PM 24.8 °F 19.1 °F 23.0 °F 93% 30.15 in 1.5 mi SSW 4.6 mph - N/A   Overcast
4:40 PM 24.8 °F 19.1 °F 23.0 °F 93% 30.15 in 2.0 mi SSW 4.6 mph - N/A   Overcast
5:01 PM 24.8 °F 17.9 °F 23.0 °F 93% 30.17 in 2.5 mi SSW 5.8 mph - N/A   Overcast
5:20 PM 24.8 °F 19.1 °F 23.0 °F 93% 30.17 in 1.8 mi SSW 4.6 mph - N/A   Overcast
5:41 PM 24.8 °F 17.9 °F 23.0 °F 93% 30.18 in 3.0 mi SSW 5.8 mph - N/A   Overcast
6:01 PM 24.8 °F 19.1 °F 23.0 °F 93% 30.19 in 4.0 mi SSW 4.6 mph - N/A   Overcast
6:21 PM 24.8 °F 17.9 °F 23.0 °F 93% 30.20 in 3.0 mi SSW 5.8 mph - N/A   Overcast
6:41 PM 23.0 °F 18.4 °F 21.2 °F 93% 30.21 in 1.0 mi SSW 3.5 mph - N/A   Overcast
7:01 PM 23.0 °F 15.8 °F 21.2 °F 93% 30.21 in 1.8 mi SSW 5.8 mph - N/A   Overcast
7:21 PM 23.0 °F 17.0 °F 21.2 °F 93% 30.21 in 2.0 mi SSW 4.6 mph - N/A   Overcast
7:41 PM 23.0 °F 17.0 °F 21.2 °F 93% 30.22 in 5.0 mi SW 4.6 mph - N/A   Mostly Cloudy
8:01 PM 23.0 °F - 21.2 °F 93% 30.22 in 10.0 mi Calm Calm - N/A   Mostly Cloudy
8:21 PM 23.0 °F - 21.2 °F 93% 30.24 in 1.0 mi Calm Calm - N/A   Overcast
8:41 PM 21.2 °F - 19.4 °F 93% 30.25 in 0.5 mi Calm Calm - N/A Fog Light Freezing Fog
9:01 PM 21.2 °F - 19.4 °F 93% 30.26 in 0.8 mi Calm Calm - N/A Snow Light Snow
9:21 PM 21.2 °F - 19.4 °F 93% 30.26 in 0.8 mi Calm Calm - N/A Snow Light Snow
9:40 PM 21.2 °F - 19.4 °F 93% 30.26 in 0.5 mi Calm Calm - N/A Fog Light Freezing Fog
9:58 PM 21.2 °F - 19.4 °F 93% 30.24 in 1.0 mi North - - N/A Snow Light Snow
10:20 PM 19.4 °F - 17.6 °F 93% 30.26 in 1.8 mi Calm Calm - N/A   Overcast
10:41 PM 15.8 °F 10.2 °F 12.2 °F 86% 30.28 in 0.5 mi NNE 3.5 mph - N/A Fog Light Freezing Fog
11:01 PM - - - N/A% 30.28 in 0.5 mi ENE 5.8 mph - N/A   Unknown
11:21 PM - - - N/A% 30.28 in 0.2 mi NE 4.6 mph - N/A Fog Fog
11:41 PM - - - N/A% 30.28 in 0.5 mi NNE 4.6 mph - N/A   Unknown